{"data":{"norad_id":49028,"epoch":"2026-05-25T04:15:38.967840Z","epoch_age_seconds":62772,"freshness":"FRESH","line1":"1 49028U 21065C   26145.17753435  .00002327  00000+0  17371-3 0  9995","line2":"2 49028  34.9942  53.0359 0001253 268.3168  91.7397 15.02541028265160","mean_motion":15.02541028,"eccentricity":0.0001253,"inclination_deg":34.9942,"raan_deg":53.0359,"arg_perigee_deg":268.3168,"mean_anomaly_deg":91.7397,"bstar":0.00017371,"rev_number":26516,"period_min":95.837649233229,"perigee_km":558.19482593822,"apogee_km":559.93328852316,"semimajor_km":6937.2010572307,"source":"CELESTRAK","updated_at":"2026-05-25T13:37:57.046641Z"}}